Location: Columbia
(38.9520°N, 92.3340°W)
Time: 01:12:26
(UTC-05:00)

SL-08 RB Rocket - Visible Passes

Search period start: 29 May 2015 00:00
Search period end: 08 June 2015 00:00
Orbit: 649 x 686 km, 98.1° (Epoch: 28 May)

Date Brightness Start Highest point End Pass type
(mag) Time Alt. Az. Time Alt. Az. Time Alt. Az.
29 May 4.8 22:01:30 23° ESE 22:03:24 31° ENE 22:07:31 10° N visible
29 May 5.4 23:39:40 24° WSW 23:40:31 25° W 23:44:17 10° NW visible
30 May 3.8 22:33:52 42° SE 22:35:19 67° ENE 22:39:57 10° N visible
31 May 6.3 00:12:01 11° W 00:12:55 11° W 00:14:09 10° WNW visible
31 May 5.7 21:28:08 10° E 21:30:39 15° ENE 21:33:22 10° NNE visible
31 May 4.2 23:06:13 44° SSW 23:07:20 55° W 23:11:55 10° NNW visible
01 Jun 4.8 22:00:25 21° ESE 22:02:27 30° ENE 22:06:32 10° N visible
01 Jun 5.3 23:38:35 24° WSW 23:39:32 25° W 23:43:20 10° NW visible
02 Jun 3.8 22:32:46 39° SE 22:34:21 66° ENE 22:38:57 10° N visible
03 Jun 6.2 00:10:56 11° WSW 00:11:56 11° W 00:13:19 10° WNW visible
03 Jun 5.7 21:27:16 10° E 21:29:42 15° ENE 21:32:20 10° NNE visible
03 Jun 4.1 23:05:08 42° SSW 23:06:22 56° W 23:10:57 10° NNW visible
04 Jun 4.8 21:59:20 20° ESE 22:01:29 30° ENE 22:05:31 10° N visible
04 Jun 5.3 23:37:30 24° WSW 23:38:34 26° W 23:42:22 10° NW visible
05 Jun 3.8 22:31:42 37° SE 22:33:23 64° ENE 22:37:58 10° N visible
06 Jun 6.2 00:09:51 11° WSW 00:10:58 12° W 00:12:27 10° WNW visible
06 Jun 5.7 21:26:24 10° E 21:28:44 14° ENE 21:31:16 10° NNE visible
06 Jun 4.1 23:04:04 41° SSW 23:05:24 58° W 23:09:58 10° NNW visible
07 Jun 4.9 21:58:16 19° ESE 22:00:31 29° ENE 22:04:31 10° N visible
07 Jun 5.3 23:36:25 24° WSW 23:37:35 26° W 23:41:25 10° NW visible
